{"data":{"norad_id":28912,"intl_designator":"2005-049B","name":"METEOSAT-9 (MSG-2)","alt_names":[],"object_type":"PAYLOAD","status":"ACTIVE","operator":null,"country":"EUME","launch_date":"2005-12-21","launch_site_code":"FRGUI","launch_vehicle":null,"mission":null,"orbit_class":"UNKNOWN","rcs_meters":2.0767,"size_class":null,"mass_kg":null,"dimensions":null,"purposes":["comms","earth_obs"],"wikipedia_slug":null,"has_3d_model":false,"image_url":null,"decayed_at":null,"tle_current":{"epoch":"2026-05-24T21:06:55.373184Z","epoch_age_seconds":85445,"freshness":"FRESH","line1":"1 28912U 05049B   26144.87980756  .00000120  00000+0  00000+0 0  9998","line2":"2 28912   9.3116  54.3974 0001505 324.0196 226.4452  1.00274292  6763","mean_motion":1.00274292,"eccentricity":0.0001505,"inclination_deg":9.3116,"raan_deg":54.3974,"arg_perigee_deg":324.0196,"mean_anomaly_deg":226.4452,"bstar":0,"rev_number":676,"period_min":1436.0609995631,"perigee_km":35779.546486336,"apogee_km":35792.237859117,"semimajor_km":42164.029172727,"source":"CELESTRAK","updated_at":"2026-05-25T13:38:13.850782Z"}}}